Location: Raleigh
(35.7720°N, 78.6390°W)
Time: 21:02:09
(UTC-04:00)

JAS-2 - Visible Passes

Search period start: 30 July 2015 00:00
Search period end: 09 August 2015 00:00
Orbit: 801 x 1321 km, 98.5° (Epoch: 30 July)

Date Brightness Start Highest point End Pass type
(mag) Time Alt. Az. Time Alt. Az. Time Alt. Az.
30 Jul 12.4 02:41:12 10° ENE 02:42:18 11° E 02:44:10 10° E visible
30 Jul 10.3 04:20:54 10° NNE 04:28:45 71° ESE 04:35:39 14° S visible
31 Jul 11.6 03:26:54 10° NE 03:33:24 29° E 03:39:51 11° SSE visible
31 Jul 10.3 05:11:07 10° N 05:18:43 55° WNW 05:26:11 10° SW visible
01 Aug 10.4 04:16:05 10° NNE 04:23:54 66° E 04:30:31 15° S visible
02 Aug 11.7 03:22:12 10° NE 03:28:31 27° E 03:34:42 11° SSE visible
02 Aug 10.3 05:06:13 10° N 05:13:56 58° WNW 05:21:10 11° SSW visible
03 Aug 10.5 04:11:17 10° NNE 04:19:05 62° E 04:25:22 16° S visible
03 Aug 11.1 05:57:14 10° N 06:03:34 27° WNW 06:09:36 10° WSW visible
04 Aug 11.7 03:17:32 10° NE 03:23:37 25° E 03:29:33 11° SE visible
04 Aug 10.2 05:01:22 10° N 05:09:08 62° WNW 05:16:01 13° SSW visible
05 Aug 10.5 04:06:30 10° NNE 04:14:15 59° E 04:20:12 17° S visible
05 Aug 11.1 05:52:18 10° N 05:58:48 28° WNW 06:04:56 10° WSW visible
06 Aug 11.8 03:12:55 10° NE 03:18:43 23° E 03:24:23 11° SE visible
06 Aug 10.1 04:56:32 10° N 05:04:20 66° WNW 05:10:51 14° SSW visible
07 Aug 10.6 04:01:44 10° NNE 04:09:24 55° E 04:15:02 18° S visible
07 Aug 11.0 05:47:23 10° N 05:54:01 30° WNW 06:00:14 10° WSW visible
08 Aug 11.9 03:08:17 10° NE 03:13:48 22° E 03:19:12 11° SE visible
08 Aug 10.1 04:51:42 10° N 04:59:32 69° WNW 05:05:40 16° SSW visible
